Temperature
18 18 18 18 18 18 18 18 18 18 18 18 18 18 18 18 18 18 18 18 18 18 18 18 17 17 17 17 17 17 17 17 17 17 17 17 17 17 17 17 17 17 17
18 18 18 18 18 18 18 18 18 18 18 18 18 17 18 18 18 17 17 17 18 18 18 17 17 17 17 17 17 17 17 17 17 17 17 17 17 17 17 17 17 17 17
18 18 18 18 18 18 18 18 18 18 18 18 18 17 18 17 17 17 17 17 17 17 18 18 18 17 17 17 17 17 17 17 17 17 17 17 17 17 17 17 16 16 17
18 18 18 18 18 18 18 18 18 18 18 18 18 18 17 17 17 17 17 17 17 17 17 17 18 17 17 17 17 17 17 17 17 17 17 17 17 17 17 16 16 16 16
18 18 18 18 18 18 18 18 18 18 18 18 18 17 17 17 17 17 17 17 17 17 17 17 17 17 17 17 17 17 17 17 17 17 17 17 17 17 16 16 16 16 16
18 18 17 18 17 17 17 17 17 17 17 17 18 18 17 17 17 17 17 17 17 17 17 17 17 17 17 17 17 17 17 17 17 17 17 17 17 17 16 16 16 16 16
18 18 17 17 17 17 17 17 17 17 17 17 18 18 18 18 17 17 17 17 17 17 17 17 16 17 17 17 17 17 17 17 17 17 17 17 16 16 16 16 16 16 16
18 17 17 17 17 17 17 17 17 17 17 17 18 18 19 19 18 18 17 17 17 17 17 17 16 16 16 16 17 17 17 17 17 16 16 16 16 16 16 16 16 16 16
18 18 17 17 17 17 17 17 17 17 17 17 17 18 19 20 19 18 17 17 17 16 17 17 16 16 16 16 16 16 17 17 17 17 16 16 16 16 16 16 16 16 16
17 17 17 17 17 17 17 17 17 17 17 17 17 17 17 18 18 19 18 17 17 16 16 16 16 16 16 16 16 16 17 17 16 16 16 16 16 16 16 16 16 16 16
17 17 17 17 17 17 17 16 16 16 16 17 17 17 17 17 17 18 18 18 17 17 16 16 16 16 16 16 16 16 16 16 16 16 16 16 16 16 16 16 16 16 16
17 17 17 17 16 16 16 16 16 16 16 16 16 16 17 17 17 17 18 17 17 17 16 16 16 16 15 15 15 16 16 16 16 16 16 16 16 16 16 16 16 16 16
17 17 16 16 16 16 16 16 16 16 16 16 16 16 16 16 16 16 17 17 17 17 16 16 16 15 15 15 15 16 16 16 16 16 16 16 16 16 16 16 16 16 16
17 16 16 16 16 16 16 16 16 16 15 15 15 15 15 16 16 16 16 16 17 17 17 16 16 15 15 15 15 15 15 15 16 16 16 16 16 16 16 16 16 16 16
16 16 16 16 16 16 16 15 15 15 15 15 15 15 15 15 15 15 15 15 16 17 17 16 16 15 15 15 15 15 15 15 15 15 15 15 15 15 15 15 15 15 16
16 16 16 16 16 16 15 15 15 15 15 15 15 15 15 15 15 15 15 15 15 15 16 16 15 15 15 15 15 14 14 15 15 15 15 15 15 15 15 15 15 15 15
16 16 15 15 15 15 15 15 15 15 14 14 14 14 14 14 14 14 14 14 15 15 15 15 15 15 14 14 14 14 14 14 14 15 15 15 15 15 15 15 15 15 15
15 15 15 15 15 15 15 15 15 14 14 14 14 14 14 14 14 14 14 14 14 14 14 14 14 14 14 14 13 14 14 14 14 14 14 15 15 15 15 15 15 15 15
15 15 15 15 15 14 14 14 14 14 14 14 14 14 14 14 13 13 13 13 14 14 14 14 14 14 14 14 13 13 14 14 14 14 14 14 14 14 14 14 14 14 14
15 15 14 14 14 14 14 14 14 14 14 13 13 13 13 13 13 13 13 13 13 13 13 13 14 14 14 13 13 14 14 14 14 14 14 14 14 14 14 14 14 14 14
15 14 14 14 14 14 14 14 13 13 13 13 13 13 13 13 13 13 13 13 13 13 13 13 13 13 13 13 13 13 14 13 13 14 14 14 14 14 14 14 14 14 14
14 14 14 14 14 14 14 14 14 13 13 13 13 13 13 13 13 13 13 13 13 12 12 13 13 13 13 13 13 13 13 13 13 14 13 13 14 14 14 14 14 14 14
14 14 14 13 13 14 14 14 14 13 13 13 13 13 13 13 13 12 13 13 12 12 12 12 12 12 12 12 12 12 12 12 13 13 13 13 13 13 14 14 13 13 14
14 13 13 13 13 13 14 14 13 13 13 12 12 12 12 12 12 12 12 12 12 12 12 12 12 12 12 12 12 12 12 12 12 12 12 13 13 13 13 13 13 13 13
13 13 13 13 13 13 13 13 13 12 12 12 12 12 12 12 12 12 12 11 11 12 12 12 12 12 12 12 12 11 11 12 12 12 12 12 13 13 13 13 13 13 13
13 13 13 13 13 13 13 13 13 12 12 12 12 12 12 12 12 12 11 11 11 11 11 11 12 12 11 12 11 11 11 11 12 12 12 12 12 12 12 13 13 12 12
Wind_Speed
1 1 1 1 1 1 1 1 1 1 0 1 1 1 1 1 2 3 5 8 8 8 8 9 10 10 10 11 12 12 13 13 13 14 14 15 15 15 15 15 16 15 15
1 1 1 0 1 1 0 0 0 1 1 0 0 0 1 1 1 2 3 7 8 8 8 9 9 9 10 11 11 12 11 12 12 13 14 15 15 15 15 15 15 15 15
1 1 1 1 1 0 1 1 1 1 1 1 1 1 1 1 1 1 1 2 6 8 8 8 8 8 9 10 11 11 12 12 13 13 14 14 15 15 16 16 16 16 16
1 1 1 1 0 1 1 1 1 0 1 1 1 0 0 1 1 1 1 2 2 4 8 8 7 8 9 10 11 11 12 13 13 14 15 15 15 15 15 16 16 16 16
1 1 1 1 1 1 1 1 1 1 1 1 1 1 1 1 2 1 1 1 2 2 3 7 8 7 7 8 8 8 10 11 12 13 14 15 15 15 15 15 16 16 15
1 1 0 1 1 1 1 1 0 1 1 1 2 1 1 1 2 1 2 2 2 3 2 3 5 7 8 7 7 7 8 9 10 11 13 15 16 15 16 16 16 16 16
1 1 2 1 1 1 2 2 1 1 1 1 2 2 2 3 2 2 2 2 2 2 2 2 2 2 5 9 7 6 7 8 9 11 11 12 14 15 16 17 17 17 17
1 1 1 1 1 1 1 2 2 2 1 1 2 2 2 3 3 3 2 2 2 2 2 2 2 2 2 3 5 6 6 6 8 9 10 11 12 14 15 16 16 16 17
1 2 1 2 2 1 1 1 2 2 2 1 2 2 2 1 1 3 2 2 2 1 2 2 3 3 3 2 2 5 4 5 6 8 9 10 12 13 14 16 17 17 17
1 1 1 1 2 1 1 2 1 2 3 2 1 1 3 3 2 1 3 2 2 2 2 2 2 3 3 3 2 1 3 4 5 6 8 9 10 12 13 14 16 17 17
1 1 1 1 1 1 2 2 2 3 2 2 2 1 2 2 3 3 2 2 2 2 2 2 2 2 3 4 3 2 3 5 5 6 7 7 9 10 11 13 14 16 17
0 1 1 1 1 1 1 1 1 1 2 2 3 2 2 2 2 3 4 4 3 2 2 2 2 2 3 4 4 1 4 6 6 6 6 7 8 9 11 12 13 15 16
1 1 1 1 2 1 1 1 0 1 1 2 2 3 3 3 3 3 4 4 4 3 2 2 2 3 3 4 3 3 6 6 6 7 7 7 8 9 10 11 12 13 14
2 2 1 1 1 2 2 1 1 1 1 2 2 2 2 2 3 3 4 4 5 4 3 3 2 3 3 3 1 5 5 7 7 7 7 8 8 9 10 10 11 12 13
2 1 1 1 1 2 2 2 1 2 1 2 2 2 3 2 3 3 4 4 5 6 4 2 3 3 3 2 1 3 4 5 7 8 8 8 7 8 8 9 10 11 12
2 1 2 1 2 2 2 2 1 1 2 2 2 3 3 3 3 3 4 4 5 6 6 4 3 3 3 4 2 4 5 5 9 10 10 9 9 9 9 9 10 11 11
2 2 2 2 2 2 2 2 2 2 3 3 3 3 3 4 4 3 3 4 4 4 6 6 4 3 3 5 4 5 6 6 6 10 10 10 11 11 10 10 11 11 11
1 1 2 1 2 2 2 2 3 3 3 4 4 3 4 3 4 4 4 5 4 4 6 7 6 5 4 5 5 6 6 6 6 6 10 11 12 12 12 12 12 12 12
1 1 1 1 2 2 2 3 3 3 4 4 4 4 4 4 5 4 5 5 5 5 5 6 7 5 5 5 5 6 7 6 8 6 9 11 12 12 13 13 13 13 12
1 1 1 1 2 2 2 3 3 3 4 4 4 4 5 5 5 6 5 5 5 6 5 6 7 6 5 5 5 6 6 6 7 7 6 7 9 13 14 14 14 14 13
1 1 2 2 2 2 2 3 4 3 3 3 3 4 4 4 5 5 5 5 5 5 5 6 6 6 6 5 6 6 7 7 6 6 7 7 7 8 9 13 14 14 13
1 1 2 2 3 3 4 4 5 5 4 3 4 4 4 3 4 4 5 5 6 6 7 7 7 7 7 7 6 7 7 7 7 5 6 7 6 7 6 7 7 9 11
1 1 2 2 2 3 3 3 4 4 4 3 4 4 4 3 3 4 4 6 7 8 8 8 9 9 8 7 8 9 7 8 8 6 6 8 7 7 6 4 6 7 9
2 2 2 2 2 2 2 3 4 4 3 4 4 4 4 4 4 5 6 6 6 6 7 8 9 9 9 8 8 9 9 8 8 7 7 8 7 7 6 4 6 8 10
1 1 1 1 2 2 2 3 5 4 3 3 3 3 4 4 4 5 6 7 7 6 6 6 7 8 8 8 8 8 8 8 8 7 6 7 7 6 5 5 5 9 11
2 2 1 2 2 2 1 2 5 4 3 3 3 2 1 2 4 5 5 6 7 7 7 6 6 7 8 8 8 8 8 8 8 7 5 5 6 5 5 5 4 4 7
Wind_Direction
36 46 30 30 63 91 127 152 107 111 175 183 217 220 219 194 196 195 158 164 181 192 202 208 209 209 210 207 207 207 212 210 210 208 205 203 204 203 204 206 205 203 204
32 31 73 68 67 73 46 275 169 188 217 302 249 239 256 174 167 213 179 167 177 188 202 207 213 211 210 208 207 207 207 210 212 211 208 207 206 206 205 206 207 206 207
26 11 47 72 56 115 176 217 239 196 195 180 191 203 186 150 139 166 205 193 177 181 189 198 209 213 211 208 209 212 209 209 211 210 210 210 210 208 207 206 207 208 209
352 326 27 28 338 236 194 180 241 218 217 208 190 239 183 149 146 157 177 192 195 180 178 188 203 210 209 209 211 216 214 213 213 211 211 212 212 210 210 208 208 208 209
351 320 9 3 274 266 266 259 119 277 236 245 207 193 207 174 154 153 155 189 182 199 186 169 187 200 205 206 209 215 216 216 215 213 214 213 213 212 212 212 210 208 209
18 338 70 359 312 336 313 318 294 269 267 269 266 208 224 200 189 175 208 194 199 202 204 193 189 194 194 199 206 212 214 214 216 218 218 212 210 210 212 214 214 213 213
11 348 346 14 326 343 324 307 284 215 235 251 248 227 197 192 196 207 210 219 206 205 195 197 198 206 189 193 199 210 215 219 219 220 216 210 209 211 213 215 217 216 216
359 19 355 325 344 334 318 313 295 291 267 254 280 266 231 182 188 196 205 208 232 218 204 191 185 203 242 191 175 196 214 224 225 224 220 215 213 214 216 216 218 217 218
33 11 350 326 341 320 336 305 297 291 291 278 304 299 288 285 235 174 200 210 224 231 236 203 198 198 218 226 179 173 203 222 227 229 225 222 218 217 217 218 219 219 218
20 19 340 329 314 320 343 309 324 296 285 277 248 286 312 332 293 238 191 184 209 224 242 248 211 203 213 217 192 135 189 218 228 233 235 231 225 221 220 220 219 220 219
16 2 356 343 322 324 347 347 349 316 288 285 280 256 253 257 273 278 268 257 222 210 219 235 244 232 221 230 229 205 204 222 230 234 236 236 232 227 225 225 225 221 219
36 12 341 337 317 325 338 327 328 335 323 317 300 293 279 274 271 271 271 272 271 238 221 236 244 245 237 235 238 203 226 229 230 233 236 239 238 234 231 230 229 226 224
344 8 338 319 325 315 301 298 278 317 310 297 289 287 286 288 299 290 286 286 284 264 246 244 264 261 251 247 235 230 227 223 229 237 242 244 244 239 234 231 230 228 228
349 341 306 300 309 308 295 283 278 269 290 278 283 292 286 288 290 288 286 290 285 274 254 279 283 275 271 257 244 235 229 207 225 236 242 247 250 247 239 233 229 227 227
329 332 315 293 287 291 295 283 291 297 298 285 279 267 272 281 285 290 285 281 283 287 283 261 271 280 288 278 242 252 252 205 220 229 235 239 245 247 242 236 230 227 226
340 326 310 300 290 285 279 275 270 280 273 277 285 295 285 287 286 281 282 279 280 285 292 299 284 291 315 296 242 267 262 221 221 224 230 235 240 243 240 236 229 226 225
344 336 328 315 308 314 308 295 292 282 272 274 276 275 276 287 291 290 284 279 277 277 279 287 290 301 295 289 292 280 266 256 238 213 222 231 236 239 239 237 229 228 228
356 359 350 327 303 300 295 289 292 296 290 286 286 289 289 284 281 282 284 280 279 277 274 283 290 289 283 279 280 278 277 268 269 213 213 227 232 234 236 235 231 229 229
344 359 4 346 336 320 298 287 284 285 283 284 284 285 288 290 283 281 276 278 279 274 276 278 281 288 282 285 283 274 275 278 275 250 218 221 224 229 233 232 230 229 230
266 293 306 314 325 327 318 303 295 287 282 282 282 282 286 286 283 282 277 275 276 279 274 272 279 282 280 284 282 281 276 264 269 275 267 249 228 225 228 228 227 226 228
253 268 282 291 301 294 308 304 296 290 287 288 285 284 285 286 294 286 288 290 284 277 277 275 277 280 281 287 281 282 284 284 271 272 272 260 242 240 228 226 224 223 226
285 283 283 292 298 314 14 347 306 299 293 293 296 296 288 276 278 259 271 283 284 275 280 281 277 280 282 281 285 284 285 283 279 272 270 268 259 255 247 240 209 208 218
254 274 288 293 303 342 16 352 322 307 301 300 298 299 302 316 307 293 268 254 259 257 264 273 279 282 284 283 284 277 276 281 282 289 280 271 266 261 255 237 182 202 210
252 273 297 306 308 336 18 335 311 291 291 291 295 297 299 308 319 312 296 290 280 270 259 257 270 279 285 291 287 279 280 274 269 268 269 272 268 265 266 245 183 194 197
266 278 292 301 303 325 337 305 297 294 286 292 296 303 303 306 348 324 296 294 292 288 264 252 264 276 288 289 289 285 278 273 272 269 257 264 271 267 262 254 211 189 186
268 277 298 302 306 313 325 299 295 290 299 302 297 295 338 324 343 318 292 292 291 293 299 291 265 260 265 260 248 261 275 277 278 277 275 267 272 267 262 256 254 222 198
Height
1521 1521 1520 1520 1521 1521 1521 1521 1521 1522 1522 1523 1523 1523 1523 1523 1523 1524 1524 1523 1524 1525 1525 1526 1527 1528 1529 1531 1532 1533 1535 1537 1538 1540 1541 1543 1544 1546 1548 1550 1551 1553 1554
1521 1521 1521 1520 1521 1521 1521 1521 1521 1521 1522 1522 1522 1522 1522 1522 1522 1522 1523 1522 1522 1523 1524 1525 1526 1526 1527 1528 1530 1531 1532 1534 1535 1537 1539 1540 1542 1544 1546 1547 1549 1550 1552
1521 1521 1521 1521 1521 1521 1520 1520 1521 1521 1521 1521 1521 1521 1521 1521 1521 1521 1522 1522 1522 1521 1522 1523 1523 1524 1525 1526 1527 1529 1530 1531 1533 1534 1535 1537 1539 1541 1543 1544 1546 1548 1549
1521 1521 1521 1521 1520 1521 1521 1520 1520 1521 1521 1521 1521 1521 1521 1520 1520 1520 1521 1521 1521 1522 1521 1521 1522 1523 1523 1524 1525 1526 1527 1529 1530 1531 1532 1534 1536 1538 1539 1541 1543 1544 1546
1521 1521 1521 1520 1520 1521 1520 1520 1520 1520 1520 1520 1520 1520 1520 1520 1520 1520 1520 1520 1520 1520 1521 1520 1520 1521 1521 1522 1523 1524 1524 1526 1527 1528 1529 1531 1533 1534 1536 1538 1540 1541 1543
1520 1520 1521 1520 1520 1520 1520 1519 1519 1518 1519 1519 1520 1519 1519 1519 1519 1519 1519 1519 1519 1519 1520 1520 1519 1519 1519 1520 1521 1521 1522 1523 1524 1525 1526 1527 1529 1530 1532 1534 1536 1538 1539
1520 1520 1520 1519 1519 1519 1518 1519 1518 1518 1518 1518 1519 1519 1518 1518 1518 1518 1518 1518 1518 1518 1518 1517 1518 1518 1518 1518 1518 1519 1520 1521 1521 1522 1523 1523 1525 1527 1528 1530 1532 1534 1535
1519 1520 1519 1519 1519 1518 1517 1517 1517 1517 1518 1517 1518 1517 1517 1518 1517 1517 1517 1517 1517 1517 1516 1516 1515 1515 1516 1517 1516 1516 1517 1518 1519 1519 1520 1521 1523 1524 1525 1526 1528 1530 1531
1519 1518 1518 1518 1518 1517 1517 1516 1516 1516 1517 1517 1516 1517 1516 1516 1516 1516 1516 1515 1515 1515 1515 1515 1515 1514 1514 1515 1515 1514 1515 1515 1516 1516 1517 1518 1519 1520 1521 1523 1524 1525 1526
1518 1518 1517 1517 1516 1516 1516 1516 1515 1515 1515 1516 1515 1515 1516 1515 1516 1515 1515 1514 1514 1513 1514 1514 1514 1513 1513 1513 1512 1512 1513 1513 1513 1513 1514 1515 1515 1516 1517 1518 1519 1520 1521
1517 1517 1516 1516 1515 1515 1514 1514 1514 1514 1514 1514 1515 1514 1514 1514 1514 1514 1513 1513 1513 1513 1512 1512 1512 1512 1511 1511 1511 1510 1510 1510 1510 1510 1511 1511 1512 1512 1513 1513 1514 1515 1516
1517 1516 1515 1514 1514 1514 1513 1513 1512 1512 1512 1512 1512 1513 1513 1513 1513 1513 1512 1512 1511 1511 1510 1510 1510 1510 1509 1509 1509 1508 1508 1508 1507 1508 1508 1508 1508 1508 1509 1509 1510 1510 1511
1517 1515 1514 1513 1513 1512 1512 1511 1511 1511 1511 1510 1510 1511 1511 1511 1511 1511 1511 1510 1510 1509 1509 1509 1508 1508 1507 1507 1506 1505 1505 1504 1504 1504 1504 1504 1504 1504 1505 1505 1505 1506 1506
1515 1514 1513 1512 1512 1511 1511 1510 1510 1509 1509 1509 1509 1508 1509 1509 1509 1509 1510 1509 1508 1507 1507 1507 1506 1505 1504 1504 1503 1502 1502 1501 1501 1501 1501 1501 1501 1501 1501 1501 1501 1502 1502
1514 1513 1512 1511 1510 1510 1509 1509 1508 1507 1507 1507 1507 1507 1507 1508 1508 1507 1507 1507 1508 1505 1504 1504 1504 1503 1502 1501 1500 1499 1499 1498 1498 1498 1497 1497 1497 1497 1497 1497 1497 1497 1498
1512 1511 1511 1510 1509 1508 1507 1507 1507 1506 1506 1505 1505 1505 1505 1505 1505 1505 1505 1505 1505 1504 1503 1502 1502 1501 1499 1498 1497 1496 1495 1494 1494 1494 1494 1493 1493 1493 1493 1493 1493 1493 1494
1511 1510 1509 1508 1508 1507 1506 1505 1505 1504 1504 1504 1503 1503 1503 1502 1503 1503 1503 1502 1502 1501 1500 1500 1500 1498 1496 1495 1494 1493 1492 1491 1491 1490 1490 1489 1489 1489 1489 1489 1489 1489 1490
1509 1508 1508 1507 1506 1505 1505 1504 1503 1503 1502 1501 1501 1500 1500 1500 1500 1499 1499 1499 1499 1498 1498 1496 1496 1495 1494 1492 1491 1490 1489 1489 1488 1487 1486 1485 1485 1484 1484 1485 1485 1485 1485
1508 1507 1506 1505 1504 1504 1503 1502 1502 1501 1500 1499 1499 1498 1498 1497 1496 1497 1496 1496 1495 1495 1494 1493 1492 1492 1491 1490 1488 1487 1486 1485 1484 1484 1482 1481 1480 1480 1480 1480 1480 1480 1481
1506 1505 1504 1503 1503 1502 1501 1501 1500 1499 1498 1497 1496 1495 1495 1494 1493 1493 1493 1492 1492 1491 1491 1490 1489 1488 1487 1487 1485 1484 1483 1482 1481 1480 1479 1477 1476 1476 1475 1475 1475 1475 1476
1504 1503 1502 1502 1501 1500 1500 1499 1498 1497 1496 1495 1494 1493 1492 1491 1490 1490 1490 1489 1488 1488 1487 1486 1486 1485 1484 1483 1482 1481 1479 1478 1477 1476 1475 1474 1473 1472 1471 1470 1470 1470 1470
1501 1501 1500 1499 1499 1498 1497 1496 1495 1495 1494 1492 1491 1490 1490 1488 1487 1486 1486 1485 1485 1484 1484 1483 1482 1481 1480 1480 1479 1478 1476 1475 1473 1473 1471 1470 1469 1468 1467 1467 1465 1465 1465
1498 1498 1497 1496 1496 1495 1494 1493 1492 1492 1491 1490 1489 1488 1488 1487 1485 1484 1483 1482 1481 1480 1480 1480 1479 1477 1477 1476 1475 1474 1472 1471 1469 1469 1467 1466 1465 1464 1463 1462 1461 1461 1461
1496 1495 1494 1494 1493 1492 1491 1491 1490 1489 1489 1488 1486 1485 1484 1483 1482 1481 1480 1479 1478 1477 1476 1475 1474 1473 1472 1471 1470 1470 1468 1467 1465 1464 1463 1462 1461 1460 1460 1459 1457 1456 1457
1494 1493 1492 1491 1491 1490 1489 1489 1488 1487 1487 1485 1485 1483 1482 1481 1480 1478 1477 1476 1474 1473 1473 1471 1470 1468 1467 1466 1465 1465 1464 1464 1461 1460 1459 1459 1457 1457 1455 1455 1454 1453 1453
1492 1492 1491 1490 1489 1488 1487 1487 1486 1485 1485 1484 1482 1481 1480 1478 1477 1475 1474 1473 1471 1470 1469 1468 1466 1464 1463 1461 1460 1460 1460 1459 1458 1456 1455 1455 1454 1453 1452 1451 1451 1450 1450